BREEZE M DEB (TANK) - Orbit

View from above orbital plane
View from above orbital plane
View from above satellite
View from above satellite

Ground track
Ground track

The orbit data is extracted from the following two-line orbital elements,

1 33454U 08063B   13141.37904873  .00004267  00000-0  78830-3 0   233
2 33454 049.4418 256.0254 5485297 229.7538 167.1209 04.83064299 77792
Epoch (UTC): 21 May 2013 09:05:49
Eccentricity: 0.5485297
inclination: 49.4418°
perigee height: 295 km
apogee height: 16512 km
right ascension of ascending node: 256.0254°
argument of perigee: 229.7538°
revolutions per day: 4.83064299
mean anomaly at epoch: 167.1209°
orbit number at epoch: 7779

The dashed part of the orbit path shows where the satellite is in the earth's shadow,  

Developed and maintained by Chris Peat, Heavens-Above GmbH. Please read the updated FAQ before sending e-mail. Imprint. DLR